Location: Caltech
(34.1382°N, 118.1253°W)
Time: 05:26:53
(UTC-07:00)

Iridium 3 - Visible Passes

Search period start: 02 October 2014 00:00
Search period end: 12 October 2014 00:00
Orbit: 776 x 779 km, 86.4° (Epoch: 01 October)

Date Brightness Start Highest point End Pass type
(mag) Time Alt. Az. Time Alt. Az. Time Alt. Az.
02 Oct 6.7 20:09:32 25° NE 20:09:32 25° NE 20:12:15 10° NNE visible
02 Oct 7.9 21:49:57 20° NW 21:49:57 20° NW 21:52:25 10° NNW visible
03 Oct 7.0 19:35:15 16° ENE 19:35:15 16° ENE 19:37:40 10° NE visible
03 Oct 6.7 21:15:38 39° NW 21:15:38 39° NW 21:19:37 10° NNW visible
04 Oct 5.4 20:40:57 83° SW 20:41:06 85° W 20:46:20 10° N visible
05 Oct 5.6 20:04:46 24° SSE 20:07:39 49° E 20:12:39 10° NNE visible
05 Oct 8.2 21:45:38 10° WSW 21:48:37 15° WNW 21:51:36 10° NW visible
06 Oct 6.4 19:30:08 10° SE 19:34:19 25° E 19:38:30 10° NNE visible
06 Oct 7.3 21:10:22 10° SW 21:14:51 29° W 21:19:21 10° NNW visible
07 Oct 7.1 18:58:49 10° ESE 19:01:05 13° E 19:03:22 10° NE visible
07 Oct 6.1 20:36:07 10° SSW 20:41:12 57° W 20:46:20 10° N visible
08 Oct 5.4 20:02:31 10° S 20:07:41 74° E 20:12:53 10° N visible
09 Oct 6.0 19:29:32 10° SSE 19:34:16 37° E 19:39:02 10° NNE visible
09 Oct 7.9 21:11:20 10° SW 21:15:04 20° W 21:18:49 10° NNW visible
10 Oct 6.7 18:57:21 10° SE 19:00:59 20° E 19:04:37 10° NE visible
10 Oct 6.9 20:36:33 10° SSW 20:41:21 38° W 20:46:10 10° NNW visible
11 Oct 5.7 20:02:34 10° S 20:07:45 75° W 20:12:58 10° N visible
